Location: Oteiza
(42.6167°N, 1.9500°W)
Time: 08:23:57
(UTC+01:00)

Amateur Radio Satellites - All Passes

Search period start: 16 December 2017 07:53
Search period end: 17 December 2017 07:53
Location: Oteiza, 42.6167°N, 1.9500°W

Satellite Date Start Highest point End Downlink Frequencies (MHz)
Time Altitude Azimuth
SEEDS 16 Dec 07:54:37 07:58:26 31° 96° (E) 08:02:11 437.485
LilacSat-2 16 Dec 07:55:33 07:59:00 31° 290° (WNW) 08:02:26 437.200
NO-84 16 Dec 07:59:40 08:02:34 41° 326° (NW) 08:05:41 435.350 FM
STRAND 1 16 Dec 08:03:00 08:08:04 64° 258° (WSW) 08:13:09 437.568
FO-29 16 Dec 08:04:03 08:11:32 53° 68° (ENE) 08:19:02 435.910
NUDT-PHONESAT 16 Dec 08:05:59 08:09:26 35° 288° (WNW) 08:12:52 437.300
ZACube-1 16 Dec 08:06:56 08:08:57 13° 90° (E) 08:10:58 437.345
O/OREOS (USA 219) 16 Dec 08:07:50 08:10:48 17° 100° (E) 08:13:46 437.305
XW-2D 16 Dec 08:08:11 08:11:17 24° 291° (WNW) 08:14:24 145.860 - 145.880
AAUSAT CUBESAT 2 16 Dec 08:09:38 08:12:41 19° 93° (E) 08:15:43 437.432
KAITUO 1B 16 Dec 08:12:27 08:15:46 29° 290° (WNW) 08:19:03 145.475/437.950
XW-2A 16 Dec 08:18:31 08:21:12 21° 95° (E) 08:23:53 145.665 - 145.685
CUTE 1.7 + AOD 2 16 Dec 08:20:06 08:24:25 81° 284° (WNW) 08:28:41 437.475
XW-2B 16 Dec 08:24:36 08:27:08 17° 294° (WNW) 08:29:39 145.730 - 145.750
Oscar 11 16 Dec 08:24:53 08:26:03 11° 89° (E) 08:27:14 .
AO-85 16 Dec 08:26:50 08:30:58 28° 246° (WSW) 08:35:17 145.980
XW-2F 16 Dec 08:35:51 08:37:49 14° 295° (WNW) 08:39:46 145.980 - 146.000
AO-73 16 Dec 08:38:38 08:42:15 25° 95° (E) 08:45:56 145.935
HO-68 16 Dec 08:41:01 08:48:11 79° 289° (WNW) 08:55:19 435.675
CUTE-I 16 Dec 08:57:00 09:00:56 21° 298° (WNW) 09:04:49 437.470
UWE-3 16 Dec 09:19:40 09:23:53 54° 287° (WNW) 09:28:13 435.000/436.395/437.385
CUBEBUG 2 16 Dec 09:23:36 09:27:17 29° 291° (WNW) 09:31:01 437.445
SEEDS 16 Dec 09:30:33 09:33:56 23° 293° (WNW) 09:37:18 437.485
NO-84 16 Dec 09:39:00 09:40:35 13° 347° (NNW) 09:42:14 435.350 FM
ZACube-1 16 Dec 09:41:15 09:45:33 60° 286° (WNW) 09:49:57 437.345
AAUSAT CUBESAT 2 16 Dec 09:44:26 09:48:14 35° 289° (WNW) 09:52:00 437.432
O/OREOS (USA 219) 16 Dec 09:45:22 09:49:48 49° 297° (WNW) 09:54:15 437.305
FO-29 16 Dec 09:49:40 09:56:40 36° 266° (W) 10:03:46 435.910
XW-2A 16 Dec 09:51:07 09:53:48 22° 291° (WNW) 09:56:29 145.665 - 145.685
Oscar 11 16 Dec 09:58:18 10:02:39 69° 285° (WNW) 10:06:58 .
TIGRISAT 16 Dec 10:04:54 10:09:11 79° 77° (ENE) 10:13:27 435.000
UNISAT 6 16 Dec 10:08:36 10:12:54 85° 255° (WSW) 10:17:11 437.425
AO-73 16 Dec 10:14:38 10:18:28 31° 290° (WNW) 10:22:23 145.935
PRISM 16 Dec 10:19:29 10:23:18 36° 70° (ENE) 10:27:08 437.425
Max Valier Satellite 16 Dec 10:22:33 10:25:48 27° 96° (E) 10:29:02 145.860
HO-68 16 Dec 10:30:35 10:34:48 17° 308° (NW) 10:39:02 435.675
DELFI C3 16 Dec 10:31:27 10:35:20 54° 100° (E) 10:39:10 145.870
EO-88 16 Dec 10:46:45 10:50:10 36° 98° (E) 10:53:35 145.990 - 145.960
AIST 2D 16 Dec 10:48:44 10:51:32 23° 70° (ENE) 10:54:23 435.315
POLYITAN 1 16 Dec 10:53:49 10:54:55 11° 61° (ENE) 10:56:01 437.675
QB50P2 16 Dec 11:17:16 11:20:28 22° 66° (ENE) 11:23:42 145.880/145.840
NO-84 16 Dec 11:17:41 11:19:06 12° 9° (N) 11:20:34 435.350 FM
DUCHIFAT 1 16 Dec 11:20:29 11:23:05 16° 64° (ENE) 11:25:41 145.980
nSIGHT-1 16 Dec 11:23:40 11:26:28 28° 137° (SE) 11:29:18 .
NANOSAT C BR1 16 Dec 11:46:27 11:50:14 34° 70° (ENE) 11:54:02 145.865
PRISM 16 Dec 11:55:41 11:58:40 19° 266° (W) 12:01:40 437.425
Max Valier Satellite 16 Dec 11:56:39 11:59:26 20° 292° (WNW) 12:02:14 145.860
EO-79 16 Dec 12:02:30 12:06:36 60° 74° (ENE) 12:10:45 145.935-145.965
DELFI C3 16 Dec 12:07:51 12:09:36 13° 297° (WNW) 12:11:21 145.870
ISS 16 Dec 12:10:56 12:14:11 64° 143° (SE) 12:17:28 437.550
ESTCUBE 1 16 Dec 12:19:31 12:23:53 45° 99° (E) 12:28:13 437.505/2401.250
EO-88 16 Dec 12:21:17 12:23:30 15° 294° (WNW) 12:25:43 145.990 - 145.960
AIST 2D 16 Dec 12:21:55 12:24:38 21° 266° (W) 12:27:23 435.315
POLYITAN 1 16 Dec 12:25:55 12:30:05 74° 258° (WSW) 12:34:17 437.675
Oscar 19 16 Dec 12:27:22 12:30:32 17° 60° (ENE) 12:33:42 437.125/150
SPROUT 16 Dec 12:38:36 12:41:22 17° 92° (E) 12:44:08 437.525
AO-91 16 Dec 12:44:53 12:48:14 20° 67° (ENE) 12:51:22 145.960
LO-87 16 Dec 12:45:21 12:48:50 56° 285° (WNW) 12:52:18 145.935 - 145.965
QB50P2 16 Dec 12:52:15 12:56:03 33° 263° (W) 12:59:53 145.880/145.840
NO-84 16 Dec 12:54:05 12:57:18 28° 30° (NNE) 13:00:43 435.350 FM
DUCHIFAT 1 16 Dec 12:54:23 12:58:22 45° 261° (W) 13:02:23 145.980
nSIGHT-1 16 Dec 12:59:33 13:02:36 38° 334° (NNW) 13:05:40 .
AO-7 16 Dec 13:05:32 13:08:42 13° 41° (NE) 13:11:53 .
Gurwin Techsat 1B 16 Dec 13:20:27 13:25:16 36° 67° (ENE) 13:30:06 435.225
NANOSAT C BR1 16 Dec 13:22:56 13:26:01 20° 266° (W) 13:29:07 145.865
BUGSAT 1 16 Dec 13:28:09 13:32:11 82° 257° (WSW) 13:36:13 437.445
YUBILEINY 16 Dec 13:36:11 13:43:16 26° 65° (ENE) 13:50:15 435.215
RS-15 16 Dec 13:36:42 13:45:21 23° 99° (E) 13:53:58 29.354- 29.394
EO-79 16 Dec 13:41:13 13:42:44 12° 270° (W) 13:44:17 145.935-145.965
VELOX 1 16 Dec 13:45:39 13:49:59 53° 101° (E) 13:54:16 145.980
ISS 16 Dec 13:48:04 13:50:54 26° 341° (NNW) 13:53:44 437.550
ESTCUBE 1 16 Dec 13:57:08 14:00:21 19° 296° (WNW) 14:03:33 437.505/2401.250
Oscar 19 16 Dec 14:04:10 14:09:16 69° 258° (WSW) 14:14:26 437.125/150
SPROUT 16 Dec 14:13:25 14:17:27 42° 288° (WNW) 14:21:26 437.525
UKube-1 16 Dec 14:17:52 14:20:23 15° 92° (E) 14:22:53 .
M-CUBED/EXP-1 PRIME 16 Dec 14:19:29 14:22:14 16° 56° (NE) 14:25:01 437.505
AO-91 16 Dec 14:19:47 14:24:27 45° 260° (W) 14:28:42 145.960
NO-84 16 Dec 14:31:02 14:34:42 48° 226° (SW) 14:38:36 435.350 FM
DX 1 16 Dec 14:36:04 14:40:08 38° 98° (E) 14:44:11 434.975-435.025
nSIGHT-1 16 Dec 14:37:14 14:39:27 17° 354° (N) 14:41:40 .
AO-7 16 Dec 14:51:37 14:59:32 51° 63° (ENE) 15:07:30 .
50 SAT 16 Dec 14:55:16 14:58:24 76° 101° (ESE) 15:01:32 437.505
Gurwin Techsat 1B 16 Dec 15:00:36 15:05:13 30° 264° (W) 15:09:53 435.225
ITAMSAT 1 16 Dec 15:20:27 15:25:13 38° 68° (ENE) 15:29:59 435.822/435.867
VELOX 1 16 Dec 15:23:18 15:25:58 16° 297° (WNW) 15:28:38 145.980
ISS 16 Dec 15:25:56 15:28:11 17° 1° (N) 15:30:25 437.550
ITUPSAT 1 16 Dec 15:27:48 15:30:07 13° 90° (E) 15:32:24 437.325
YUBILEINY 16 Dec 15:32:09 15:40:56 73° 266° (W) 15:49:38 435.215
RS-15 16 Dec 15:43:44 15:56:05 85° 121° (ESE) 16:08:20 29.354- 29.394
DOVE 4 16 Dec 15:46:21 15:49:02 14° 61° (ENE) 15:51:38 437.250
SO-50 16 Dec 15:48:54 15:53:11 49° 118° (ESE) 15:57:32 436.795
M-CUBED/EXP-1 PRIME 16 Dec 15:51:41 15:56:00 64° 254° (WSW) 16:00:35 437.505
UKube-1 16 Dec 15:52:30 15:56:40 49° 288° (WNW) 16:00:48 .
MOZHAYETS 4 16 Dec 15:57:24 16:01:47 41° 98° (E) 16:06:09
DX 1 16 Dec 16:12:51 16:16:03 20° 295° (WNW) 16:19:14 434.975-435.025
nSIGHT-1 16 Dec 16:13:59 16:16:31 21° 14° (NNE) 16:19:02 .
BEESAT 16 Dec 16:34:00 16:38:45 64° 102° (ESE) 16:43:28 436.000
AO-7 16 Dec 16:44:55 16:52:27 38° 262° (W) 17:00:05 .
ITAMSAT 1 16 Dec 17:00:18 17:04:44 28° 265° (W) 17:09:11 435.822/435.867
CUTE-I 16 Dec 17:01:50 17:04:33 14° 58° (ENE) 17:07:16 437.470
ISS 16 Dec 17:02:29 17:05:25 29° 21° (NNE) 17:08:21 437.550
ITUPSAT 1 16 Dec 17:03:38 17:08:23 67° 287° (WNW) 17:13:07 437.325
LilacSat-2 16 Dec 17:05:54 17:07:11 11° 63° (ENE) 17:08:29 437.200
XW-2D 16 Dec 17:16:44 17:18:50 14° 65° (ENE) 17:20:57 145.860 - 145.880
DOVE 4 16 Dec 17:20:47 17:26:03 82° 258° (WSW) 17:31:10 437.250
KAITUO 1B 16 Dec 17:21:08 17:22:12 11° 63° (ENE) 17:23:17 145.475/437.950
CUBESAT XI-V 16 Dec 17:25:24 17:30:09 83° 103° (ESE) 17:34:50 437.345
HO-68 16 Dec 17:25:40 17:30:07 18° 53° (NE) 17:34:34 435.675
SO-50 16 Dec 17:30:18 17:33:53 23° 317° (NW) 17:37:32 436.795
XW-2B 16 Dec 17:31:51 17:34:41 20° 67° (ENE) 17:37:31 145.730 - 145.750
YUBILEINY 16 Dec 17:32:09 17:36:02 14° 287° (WNW) 17:39:57 435.215
KKS-1 16 Dec 17:34:25 17:37:32 19° 93° (E) 17:40:37 437.445
MOZHAYETS 4 16 Dec 17:35:10 17:38:39 21° 295° (WNW) 17:42:08
XW-2F 16 Dec 17:41:53 17:44:59 24° 69° (ENE) 17:48:06 145.980 - 146.000
nSIGHT-1 16 Dec 17:49:52 17:53:06 78° 34° (NE) 17:56:19 .
XW-2C 16 Dec 17:58:28 18:02:03 41° 73° (ENE) 18:05:40 145.795 - 145.815
RS-15 16 Dec 17:58:54 18:10:06 38° 327° (NNW) 18:21:08 29.354- 29.394
STARS 16 Dec 18:11:57 18:15:00 18° 93° (E) 18:18:00 437.465
BEESAT 16 Dec 18:13:11 18:15:59 16° 299° (WNW) 18:18:47 436.000
O/OREOS (USA 219) 16 Dec 18:15:30 18:19:41 37° 61° (ENE) 18:23:50 437.305
LilacSat-2 16 Dec 18:37:11 18:40:56 58° 260° (W) 18:44:45 437.200
CUTE-I 16 Dec 18:38:27 18:43:50 87° 256° (WSW) 18:49:14 437.470
ISS 16 Dec 18:38:50 18:42:01 48° 219° (SW) 18:45:11 437.550
PCSat 16 Dec 18:42:24 18:47:16 35° 111° (ESE) 18:52:11 145.827
UWE-3 16 Dec 18:43:35 18:45:14 12° 62° (ENE) 18:46:52 435.000/436.395/437.385
NUDT-PHONESAT 16 Dec 18:44:41 18:48:21 77° 259° (WSW) 18:52:05 437.300
CUBEBUG 2 16 Dec 18:46:12 18:49:30 23° 68° (ENE) 18:52:46 437.445
SEEDS 16 Dec 18:46:55 18:50:20 24° 68° (ENE) 18:53:45 437.485
XW-2D 16 Dec 18:49:01 18:52:37 43° 261° (W) 18:56:17 145.860 - 145.880
KAITUO 1B 16 Dec 18:51:58 18:55:39 58° 260° (W) 18:59:23 145.475/437.950
AAUSAT CUBESAT 2 16 Dec 19:00:54 19:03:19 15° 64° (ENE) 19:05:45 437.432
ZACube-1 16 Dec 19:04:52 19:05:51 11° 61° (ENE) 19:06:50 437.345
CUBESAT XI-V 16 Dec 19:05:01 19:06:49 12° 300° (WNW) 19:08:37 437.345
XW-2B 16 Dec 19:05:20 19:08:39 29° 264° (W) 19:12:01 145.730 - 145.750
HO-68 16 Dec 19:09:36 19:16:48 83° 72° (ENE) 19:24:02 435.675
KKS-1 16 Dec 19:10:05 19:14:15 42° 289° (WNW) 19:18:24 437.445
CUTE 1.7 + AOD 2 16 Dec 19:12:48 19:17:02 76° 77° (ENE) 19:21:20 437.475
XW-2F 16 Dec 19:15:57 19:19:00 23° 265° (W) 19:22:05 145.980 - 146.000
Oscar 11 16 Dec 19:21:45 19:22:05 10° 60° (ENE) 19:22:24 .
nSIGHT-1 16 Dec 19:27:24 19:28:53 13° 229° (SW) 19:30:21 .
XW-2C 16 Dec 19:34:25 19:36:26 14° 269° (W) 19:38:27 145.795 - 145.815
AO-73 16 Dec 19:35:16 19:38:17 20° 66° (ENE) 19:41:20 145.935
STARS 16 Dec 19:47:23 19:51:30 41° 289° (WNW) 19:55:35 437.465
O/OREOS (USA 219) 16 Dec 19:55:24 19:58:50 22° 258° (WSW) 20:02:16 437.305
STRAND 1 16 Dec 20:12:46 20:17:35 41° 98° (E) 20:22:22 437.568
UWE-3 16 Dec 20:17:04 20:21:10 62° 259° (W) 20:25:17 435.000/436.395/437.385
RS-15 16 Dec 20:17:57 20:27:23 25° 1° (N) 20:36:31 29.354- 29.394
XW-2A 16 Dec 20:21:38 20:24:56 59° 260° (W) 20:28:16 145.665 - 145.685
SEEDS 16 Dec 20:22:08 20:25:52 30° 264° (W) 20:29:38 437.485
CUBEBUG 2 16 Dec 20:22:16 20:25:58 30° 264° (W) 20:29:40 437.445
CUTE-I 16 Dec 20:23:23 20:24:37 11° 273° (W) 20:25:51 437.470
PCSat 16 Dec 20:25:40 20:30:38 36° 309° (NW) 20:35:38 145.827
AAUSAT CUBESAT 2 16 Dec 20:34:17 20:38:20 50° 261° (W) 20:42:26 437.432
ZACube-1 16 Dec 20:37:25 20:41:31 73° 258° (WSW) 20:45:41 437.345
BEESAT 3 16 Dec 20:48:30 20:52:28 89° 132° (SE) 20:56:29 437.485
Oscar 11 16 Dec 20:53:12 20:57:30 85° 259° (W) 21:01:52 .
FO-29 16 Dec 20:59:12 21:05:31 39° 95° (E) 21:11:06 435.910
HO-68 16 Dec 21:00:34 21:05:18 18° 270° (W) 21:10:03 435.675
Max Valier Satellite 16 Dec 21:02:54 21:04:56 14° 66° (ENE) 21:07:00 145.860
AO-73 16 Dec 21:10:32 21:14:18 34° 263° (W) 21:18:06 145.935
DELFI C3 16 Dec 21:17:00 21:20:35 33° 71° (ENE) 21:24:11 145.870
EO-88 16 Dec 21:25:25 21:27:57 18° 67° (ENE) 21:30:30 145.990 - 145.960
BEESAT 2 16 Dec 21:33:27 21:37:26 74° 122° (ESE) 21:41:30 435.950
FALCONSAT 3 16 Dec 21:45:53 21:46:32 10° 156° (SSE) 21:47:10 435.103
STRAND 1 16 Dec 21:52:24 21:56:33 25° 295° (WNW) 22:00:39 437.568
TIGRISAT 16 Dec 21:56:30 21:59:06 15° 92° (E) 22:01:44 435.000
UNISAT 6 16 Dec 21:59:59 22:03:04 19° 93° (E) 22:06:10 437.425
BEESAT 3 16 Dec 22:28:39 22:30:35 13° 322° (NW) 22:32:30 437.485
RS-15 16 Dec 22:33:21 22:44:25 40° 35° (NE) 22:54:55 29.354- 29.394
Max Valier Satellite 16 Dec 22:34:59 22:38:25 39° 262° (W) 22:41:53 145.860
SO-50 16 Dec 22:40:40 22:42:12 11° 32° (NNE) 22:43:43 436.795
AO-85 16 Dec 22:41:30 22:45:25 89° 344° (NNW) 22:49:33 145.980
FO-29 16 Dec 22:44:18 22:50:29 37° 296° (WNW) 22:56:02 435.910
DELFI C3 16 Dec 22:52:29 22:55:23 19° 267° (W) 22:58:18 145.870
EO-88 16 Dec 22:58:09 23:01:22 30° 263° (W) 23:04:37 145.990 - 145.960
BEESAT 2 16 Dec 23:13:15 23:15:38 15° 320° (NW) 23:18:03 435.950
ESTCUBE 1 16 Dec 23:19:22 23:23:39 44° 71° (ENE) 23:27:59 437.505/2401.250
LO-87 16 Dec 23:21:19 23:24:47 57° 75° (ENE) 23:28:15 145.935 - 145.965
FALCONSAT 3 16 Dec 23:21:57 23:24:55 23° 170° (S) 23:27:52 435.103
TIGRISAT 16 Dec 23:31:50 23:36:03 50° 287° (WNW) 23:40:20 435.000
SPROUT 16 Dec 23:32:59 23:35:25 15° 63° (ENE) 23:37:50 437.525
PRISM 16 Dec 23:34:39 23:38:40 52° 100° (E) 23:42:38 437.425
UNISAT 6 16 Dec 23:35:49 23:39:56 41° 288° (WNW) 23:44:06 437.425
AIST 2D 16 Dec 23:45:17 23:48:15 24° 95° (E) 23:51:12 435.315
POLYITAN 1 17 Dec 00:10:49 00:13:33 17° 92° (E) 00:16:17 437.675
SO-50 17 Dec 00:19:05 00:23:40 55° 52° (NE) 00:28:18 436.795
AO-85 17 Dec 00:24:32 00:26:31 13° 325° (NW) 00:28:32 145.980
QB50P2 17 Dec 00:35:49 00:39:43 34° 97° (E) 00:43:35 145.880/145.840
DUCHIFAT 1 17 Dec 00:37:36 00:41:03 25° 95° (E) 00:44:30 145.980
VELOX 1 17 Dec 00:43:04 00:47:22 51° 73° (ENE) 00:51:42 145.980
RS-15 17 Dec 00:46:14 00:58:00 76° 241° (WSW) 01:09:06 29.354- 29.394
ESTCUBE 1 17 Dec 00:57:32 01:00:39 18° 268° (W) 01:03:48 437.505/2401.250
FALCONSAT 3 17 Dec 01:00:24 01:03:28 25° 186° (S) 01:06:33 435.103
NANOSAT C BR1 17 Dec 01:04:51 01:09:00 58° 100° (E) 01:13:09 145.865
SPROUT 17 Dec 01:06:43 01:10:52 52° 260° (W) 01:15:01 437.525
BUGSAT 1 17 Dec 01:10:32 01:12:23 13° 91° (E) 01:14:15 437.445
PRISM 17 Dec 01:11:18 01:13:29 14° 297° (WNW) 01:15:38 437.425
UKube-1 17 Dec 01:13:11 01:15:42 15° 63° (ENE) 01:18:15 .
AIST 2D 17 Dec 01:18:36 01:21:15 20° 292° (WNW) 01:23:55 435.315
EO-79 17 Dec 01:21:41 01:25:55 79° 284° (WNW) 01:30:08 145.935-145.965
50 SAT 17 Dec 01:22:00 01:24:31 22° 70° (ENE) 01:27:02 437.505
DX 1 17 Dec 01:31:57 01:35:58 37° 70° (ENE) 01:40:01 434.975-435.025
Gurwin Techsat 1B 17 Dec 01:37:35 01:39:52 13° 89° (E) 01:42:09 435.225
POLYITAN 1 17 Dec 01:45:30 01:49:31 43° 288° (WNW) 01:53:32 437.675
SO-50 17 Dec 02:00:28 02:03:44 19° 249° (WSW) 02:07:02 436.795
AO-91 17 Dec 02:09:28 02:12:21 25° 96° (E) 02:15:10 145.960
QB50P2 17 Dec 02:12:04 02:15:16 21° 294° (WNW) 02:18:28 145.880/145.840
DUCHIFAT 1 17 Dec 02:13:04 02:16:40 28° 291° (WNW) 02:20:17 145.980
Oscar 19 17 Dec 02:15:02 02:19:54 39° 98° (E) 02:24:45 437.125/150
VELOX 1 17 Dec 02:21:26 02:24:06 16° 268° (W) 02:26:46 145.980
ITUPSAT 1 17 Dec 02:34:55 02:38:09 18° 63° (ENE) 02:41:23 437.325
YUBILEINY 17 Dec 02:38:55 02:45:58 28° 81° (E) 02:53:01 435.215
FALCONSAT 3 17 Dec 02:39:57 02:41:55 14° 201° (SSW) 02:43:53 435.103
NANOSAT C BR1 17 Dec 02:42:07 02:44:13 14° 297° (WNW) 02:46:19 145.865
BUGSAT 1 17 Dec 02:44:06 02:48:02 52° 287° (WNW) 02:51:59 437.445
UKube-1 17 Dec 02:47:03 02:51:17 54° 259° (W) 02:55:32 .
50 SAT 17 Dec 02:54:14 02:56:24 17° 265° (W) 02:58:35 437.505
AO-7 17 Dec 02:55:08 02:58:41 13° 87° (E) 03:02:13 .
CUBESAT XI-V 17 Dec 02:56:12 02:56:59 10° 59° (ENE) 02:57:46 437.345
MOZHAYETS 4 17 Dec 02:59:44 03:04:00 42° 71° (ENE) 03:08:19
RS-15 17 Dec 03:01:31 03:08:10 18° 264° (W) 03:14:40 29.354- 29.394
DX 1 17 Dec 03:08:59 03:12:15 21° 266° (W) 03:15:33 434.975-435.025
Gurwin Techsat 1B 17 Dec 03:15:06 03:20:26 81° 285° (WNW) 03:25:44 435.225
PCSat 17 Dec 03:29:07 03:34:05 35° 50° (NE) 03:39:02 145.827
ITAMSAT 1 17 Dec 03:34:43 03:36:24 11° 89° (E) 03:38:04 435.822/435.867
BEESAT 17 Dec 03:40:46 03:45:31 80° 74° (ENE) 03:50:16 436.000
AO-91 17 Dec 03:46:24 03:48:41 17° 293° (WNW) 03:50:55 145.960
Oscar 19 17 Dec 03:54:41 03:59:02 27° 295° (WNW) 04:03:21 437.125/150
ITUPSAT 1 17 Dec 04:10:55 04:15:33 52° 260° (W) 04:20:13 437.325
CUBESAT XI-V 17 Dec 04:28:54 04:33:33 86° 80° (E) 04:38:17 437.345
KKS-1 17 Dec 04:33:08 04:36:23 20° 65° (ENE) 04:39:38 437.445
YUBILEINY 17 Dec 04:33:17 04:42:01 66° 281° (WNW) 04:50:51 435.215
MOZHAYETS 4 17 Dec 04:38:04 04:41:20 19° 267° (W) 04:44:38
AO-7 17 Dec 04:44:27 04:52:51 71° 106° (ESE) 05:01:12 .
Gurwin Techsat 1B 17 Dec 04:57:34 04:59:31 12° 303° (WNW) 05:01:28 435.225
M-CUBED/EXP-1 PRIME 17 Dec 05:03:38 05:08:09 86° 106° (ESE) 05:12:20 437.505
BEESAT 3 17 Dec 05:04:23 05:08:17 61° 54° (NE) 05:12:07 437.485
STARS 17 Dec 05:09:17 05:12:22 19° 64° (ENE) 05:15:27 437.465
ITAMSAT 1 17 Dec 05:11:18 05:16:31 85° 284° (WNW) 05:21:40 435.822/435.867
PCSat 17 Dec 05:12:32 05:17:28 36° 249° (WSW) 05:22:22 145.827
DOVE 4 17 Dec 05:20:04 05:23:37 23° 93° (E) 05:27:03 437.250
BEESAT 17 Dec 05:22:40 05:23:51 11° 271° (W) 05:25:03 436.000
AO-85 17 Dec 05:31:44 05:34:49 17° 39° (NE) 05:38:01 145.980
NO-84 17 Dec 05:48:22 05:49:30 12° 125° (SE) 05:50:39 435.350 FM
BEESAT 2 17 Dec 05:50:17 05:54:14 53° 53° (NE) 05:58:08 435.950
KKS-1 17 Dec 06:08:24 06:12:38 42° 261° (W) 06:16:53 437.445
LilacSat-2 17 Dec 06:10:47 06:12:55 14° 91° (E) 06:15:02 437.200
XW-2D 17 Dec 06:21:12 06:23:52 18° 93° (E) 06:26:31 145.860 - 145.880
KAITUO 1B 17 Dec 06:23:38 06:25:23 13° 91° (E) 06:27:07 145.475/437.950
YUBILEINY 17 Dec 06:36:42 06:40:50 14° 305° (NW) 06:45:01 435.215
XW-2B 17 Dec 06:36:43 06:39:58 25° 95° (E) 06:43:12 145.730 - 145.750
AO-7 17 Dec 06:38:04 06:44:56 30° 305° (NW) 06:51:48 .
HO-68 17 Dec 06:39:00 06:42:32 14° 87° (E) 06:46:02 435.675
M-CUBED/EXP-1 PRIME 17 Dec 06:40:05 06:41:44 12° 307° (NW) 06:43:21 437.505
BEESAT 3 17 Dec 06:43:50 06:45:16 12° 251° (WSW) 06:46:41 437.485
STARS 17 Dec 06:44:12 06:48:23 43° 261° (W) 06:52:34 437.465
XW-2F 17 Dec 06:46:22 06:49:49 31° 96° (E) 06:53:14 145.980 - 146.000
ITAMSAT 1 17 Dec 06:53:10 06:55:09 12° 303° (WNW) 06:57:09 435.822/435.867
CUTE-I 17 Dec 06:55:02 06:59:54 35° 97° (E) 07:04:43 437.470
DOVE 4 17 Dec 06:57:26 07:01:22 31° 291° (WNW) 07:05:06 437.250
CUTE 1.7 + AOD 2 17 Dec 06:58:39 07:00:33 13° 90° (E) 07:02:26 437.475
XW-2C 17 Dec 07:03:52 07:07:41 56° 100° (E) 07:11:27 145.795 - 145.815
AO-85 17 Dec 07:10:59 07:15:49 89° 236° (WSW) 07:20:58 145.980
FO-29 17 Dec 07:11:12 07:17:14 25° 59° (ENE) 07:23:12 435.910
NO-84 17 Dec 07:23:18 07:26:15 57° 324° (NW) 07:29:25 435.350 FM
STRAND 1 17 Dec 07:29:08 07:34:11 64° 73° (ENE) 07:39:15 437.568
BEESAT 2 17 Dec 07:29:17 07:31:30 14° 250° (WSW) 07:33:42 435.950
LilacSat-2 17 Dec 07:43:42 07:47:23 42° 287° (WNW) 07:51:02 437.200
